Location: Gisborne
(38.6530°S, 178.0040°E)
Time: 12:08:41
(UTC+13:00)

ISS - Visible Passes

Search period start: 22 October 2019 00:00
Search period end: 01 November 2019 00:00
Orbit: 411 x 421 km, 51.6° (Epoch: 21 October)

Date Brightness Start Highest point End Pass type
(mag) Time Alt. Az. Time Alt. Az. Time Alt. Az.
22 Oct -2.7 20:10:08 10° WNW 20:13:26 49° SW 20:16:45 10° SE visible
22 Oct -0.6 21:49:07 10° SW 21:50:49 13° SSW 21:52:32 10° SSE visible
23 Oct -0.8 20:59:42 10° WSW 21:01:59 17° SSW 21:04:17 10° SSE visible
24 Oct -1.2 20:10:27 10° W 20:13:12 22° SSW 20:15:58 10° SSE visible
25 Oct -0.6 21:00:55 10° SSW 21:02:01 11° SSW 21:03:09 10° S visible
25 Oct -0.3 22:39:18 10° S 22:39:23 10° S 22:39:23 10° S visible
26 Oct -0.8 20:11:19 10° SW 20:13:07 14° SSW 20:14:55 10° SSE visible
27 Oct -0.5 22:38:02 10° SSW 22:38:46 13° S 22:38:46 13° S visible
28 Oct -0.9 21:49:45 10° S 21:51:09 12° SSE 21:51:57 11° SSE visible
29 Oct -0.7 21:01:41 10° S 21:02:12 10° S 21:02:42 10° SSE visible
29 Oct -0.8 22:36:57 10° SSW 22:38:01 16° SSW 22:38:01 16° SSW visible
30 Oct -1.5 21:48:34 10° SSW 21:51:03 18° SSE 21:51:10 18° SSE visible
31 Oct -1.1 21:00:12 10° SSW 21:02:08 14° SSE 21:04:04 10° SE visible
31 Oct -1.0 22:36:04 10° SW 22:37:13 19° SW 22:37:13 19° SW visible
